[[{"header":{"parameterUnit":"m.s-1","parameterCategory":2,"la1":30.2991,"la2":30.254,"lo1":-89.0895,"lo2":-89.0444,"dy":0.0017,"dx":0.0017,"nx":28,"ny":28,"refTime":"2024-04-26T21:00:00:Z","depth":"0","parameterNumber":2,"parameterNumberName":"U-component_of_CURRENTS"},"data":[0,0,0,0,0,0,0,0,0,0,0,0,0,0,0,0,0,0,0,0,0,0,0,0,0,0,0,0,0,0,0,0,0,0,0,0,0,0,0,0,0,0,0,0,0,0,0,0,0,0,0,0,0,0,0,0,0,0,-0.3255,-0.3256,0,-0.3302,-0.3302,-0.3302,-0.3272,-0.3271,-0.327,-0.3269,-0.3233,-0.3233,-0.3233,0,0,0,0,0,0,0,0,0,0,0,0,0,-0.3141,-0.3143,-0.3255,-0.3256,-0.3257,-0.3302,-0.3302,-0.3302,-0.3273,-0.3271,-0.327,-0.3269,-0.3233,-0.3233,-0.3233,0,0,0,0,0,0,0,0,0,0,0,0,0,-0.3186,-0.3144,-0.3255,-0.325,-0.325,-0.3302,-0.3302,-0.3302,-0.3273,-0.3271,-0.327,-0.3268,-0.3233,-0.3233,-0.3233,-0.3267,0,0,-0.3234,-0.3234,0,0,0,0,0,0,0,0,-0.3184,-0.319,-0.3249,-0.325,-0.325,-0.3282,-0.3249,-0.3287,-0.3273,-0.3261,-0.3269,-0.3267,-0.3245,-0.3244,-0.3253,-0.3265,-0.3264,-0.3234,-0.3234,-0.3234,-0.3234,0,0,0,0,0,0,0,-0.3181,-0.3188,-0.327,-0.3251,-0.3251,-0.3246,-0.325,-0.3256,-0.3258,-0.3262,-0.3261,-0.3271,-0.3244,-0.3253,-0.3252,-0.3263,-0.3234,-0.3234,-0.3234,-0.3234,-0.3334,-0.3336,0,0,0,0,0,0,-0.3184,-0.3186,-0.3269,-0.3272,-0.3216,-0.3249,-0.3254,-0.3271,-0.3259,-0.3258,-0.3273,-0.327,-0.3254,-0.3252,-0.3251,-0.3297,-0.3234,-0.3234,-0.3234,-0.3331,-0.3334,-0.3337,0,0,0,0,0,0,-0.3181,-0.3191,-0.3267,-0.3231,-0.3241,-0.3253,-0.3273,-0.3273,-0.3276,-0.3269,-0.3265,-0.3275,-0.3253,-0.325,-0.327,-0.3294,-0.3234,-0.3234,-0.3328,-0.3332,-0.3335,-0.3384,0,0,0,0,0,0,-0.3178,-0.319,-0.3199,-0.3232,-0.3243,-0.3304,-0.3275,-0.3275,-0.3287,-0.3284,-0.327,-0.3265,-0.3251,-0.327,-0.327,-0.3293,-0.3234,-0.3325,-0.333,-0.3334,-0.3379,-0.3389,-0.3398,0,0,0,0,0,-0.3174,-0.3195,-0.3199,-0.3209,-0.3257,-0.3306,-0.3311,-0.3311,-0.3289,-0.3304,-0.3299,-0.3265,-0.3301,-0.3272,-0.3271,-0.3295,-0.3322,-0.3328,-0.3334,-0.3375,-0.3387,-0.3398,0,0,0,0,0,0,-0.3145,-0.3196,-0.32,-0.3234,-0.327,-0.3302,-0.3313,-0.3315,-0.3324,-0.3314,-0.3293,-0.3291,-0.3317,-0.3311,-0.328,-0.3345,-0.3309,-0.3315,-0.334,-0.3352,-0.3361,-0.3357,-0.3234,0,0,0,0,0,-0.3147,-0.3175,-0.3223,-0.3248,-0.3268,-0.329,-0.3306,-0.3315,-0.3331,-0.3332,-0.3325,-0.3329,-0.3346,-0.3349,-0.3361,-0.3393,-0.3367,-0.3414,-0.3423,-0.3431,-0.3432,-0.3423,-0.343,-0.3356,-0.3356,-0.3356,0,0,-0.3139,-0.3172,-0.3185,-0.3243,-0.3265,-0.3316,-0.3294,-0.3329,-0.3367,-0.3328,-0.3361,-0.3356,-0.3363,-0.3401,-0.3413,-0.3393,-0.3441,-0.3438,-0.3444,-0.3441,-0.343,-0.3436,-0.3442,-0.336,-0.3359,-0.3359,0,0,-0.3152,-0.3172,-0.3206,-0.3249,-0.33,-0.3326,-0.3339,-0.3379,-0.3389,-0.3431,-0.3415,-0.3425,-0.345,-0.3461,-0.347,-0.3542,-0.3489,-0.355,-0.3589,-0.3581,-0.3586,-0.359,-0.3564,-0.3565,-0.3555,-0.3555,-0.3555,0,-0.3139,-0.3195,-0.3222,-0.3277,-0.3314,-0.3334,-0.3387,-0.3418,-0.3457,-0.347,-0.3448,-0.3487,-0.3482,-0.353,-0.3555,-0.3558,-0.3537,-0.3538,-0.3589,-0.3592,-0.3595,-0.3568,-0.3568,-0.3558,-0.3558,-0.3558,-0.3557,0,-0.3188,-0.3237,-0.3262,-0.334,-0.3385,-0.3431,-0.3488,-0.352,-0.3527,-0.3548,-0.3584,-0.3581,-0.3595,-0.3608,-0.36,-0.3636,-0.3608,-0.3595,-0.3549,-0.3605,-0.3573,-0.3573,-0.3563,-0.3562,-0.3561,-0.356,0,0,-0.3138,-0.3271,-0.3276,-0.3326,-0.3422,-0.346,-0.3536,-0.3603,-0.3634,-0.3658,-0.3689,-0.3719,-0.3691,-0.3701,-0.369,-0.3689,-0.3689,-0.3654,-0.3652,-0.3607,-0.3655,-0.3613,-0.3608,-0.3677,-0.3677,-0.3678,-0.3621,0,-0.3163,-0.327,-0.3334,-0.3429,-0.3487,-0.3548,-0.3617,-0.3677,-0.3706,-0.3741,-0.3743,-0.3763,-0.3738,-0.3731,-0.3731,-0.3701,-0.3691,-0.3704,-0.3626,-0.3623,-0.3562,-0.3608,-0.3508,-0.3448,-0.362,-0.362,-0.362,0,-0.3179,-0.3255,-0.3353,-0.3479,-0.3508,-0.3563,-0.3652,-0.3716,-0.3783,-0.3804,-0.3822,-0.3817,-0.3828,-0.3788,-0.3756,-0.3763,-0.3713,-0.3684,-0.368,-0.3622,-0.3581,-0.3424,-0.344,-0.3439,-0.3619,-0.3619,-0.3619,0,-0.3117,-0.3258,-0.3332,-0.3378,-0.3526,-0.3565,-0.3626,-0.3713,-0.376,-0.3821,-0.3842,-0.3861,-0.3847,-0.3813,-0.3757,-0.375,-0.3707,-0.3687,-0.3604,-0.3599,-0.349,-0.3475,-0.3476,-0.3656,-0.3657,-0.3657,-0.3657,0,-0.3118,-0.317,-0.3301,-0.3344,-0.3409,-0.3524,-0.3586,-0.3651,-0.3743,-0.3786,-0.3842,-0.3863,-0.3849,-0.3828,-0.3774,-0.3689,-0.3715,-0.3614,-0.3588,-0.3506,-0.3495,-0.3469,-0.3476,-0.3655,-0.3655,-0.3655,-0.3656,0,-0.3033,-0.3137,-0.3208,-0.3346,-0.3381,-0.3409,-0.3538,-0.359,-0.3688,-0.3742,-0.376,-0.3847,-0.382,-0.3801,-0.3742,-0.3693,-0.3575,-0.3589,-0.349,-0.3455,-0.3372,-0.3385,-0.3318,-0.3224,-0.3483,-0.3481,-0.348,0,-0.3001,-0.303,-0.3149,-0.3184,-0.3238,-0.3311,-0.3373,-0.3517,-0.3574,-0.3719,-0.3732,-0.3765,-0.3768,-0.37,-0.3625,-0.3534,-0.3501,-0.339,-0.3367,-0.3363,-0.3358,-0.3354,-0.3278,-0.3235,-0.3232,-0.323,-0.3228,0,-0.2903,-0.2932,-0.2994,-0.3053,-0.3113,-0.3181,-0.3271,-0.3319,-0.3487,-0.356,-0.3643,-0.367,-0.3655,-0.3563,-0.3476,-0.3386,-0.3327,-0.3336,-0.3354,-0.319,-0.316,-0.3057,-0.3277,-0.3206,-0.3208,-0.321,-0.3211,-0.3212,-0.2787,-0.2786,-0.2852,-0.2898,-0.2966,-0.3005,-0.3004,-0.3138,-0.3206,-0.3285,-0.344,-0.3463,-0.3497,-0.3372,-0.3311,-0.3173,-0.3162,-0.3075,-0.3095,-0.3096,-0.2998,-0.3174,-0.3068,-0.307,-0.3071,-0.3072,-0.3073,0,-0.2639,-0.2664,-0.2698,-0.2745,-0.2744,-0.2828,-0.2904,-0.288,-0.2906,-0.306,-0.3122,-0.3227,-0.3168,-0.3191,-0.3116,-0.2998,-0.2898,-0.2898,-0.2873,-0.2804,-0.2972,-0.2957,-0.2796,-0.2796,-0.2797,-0.2797,-0.2797,-0.2797,-0.2565,-0.2542,-0.2565,-0.2498,-0.2524,-0.2446,-0.2442,-0.2444,-0.2508,-0.2571,-0.2699,-0.2854,-0.2926,-0.3194,-0.3093,-0.2941,-0.284,-0.274,-0.2739,-0.2893,-0.2911,-0.2929,-0.2919,-0.2753,-0.2753,-0.249,-0.2488,-0.2487]},{"header":{"parameterUnit":"m.s-1","parameterCategory":2,"la1":30.2991,"la2":30.254,"lo1":-89.0895,"lo2":-89.0444,"dy":0.0017,"dx":0.0017,"nx":28,"ny":28,"refTime":"2024-04-26T21:00:00:Z","depth":"0","parameterNumber":3,"parameterNumberName":"V-component_of_CURRENTS"},"data":[0,0,0,0,0,0,0,0,0,0,0,0,0,0,0,0,0,0,0,0,0,0,0,0,0,0,0,0,0,0,0,0,0,0,0,0,0,0,0,0,0,0,0,0,0,0,0,0,0,0,0,0,0,0,0,0,0,0,-0.0177,-0.0176,0,-0.0035,-0.0033,-0.0031,0.0065,0.0065,0.0066,0.0066,0.0269,0.0274,0.0278,0,0,0,0,0,0,0,0,0,0,0,0,0,-0.0281,-0.028,-0.0177,-0.0175,-0.0174,-0.0035,-0.0033,-0.0031,0.0065,0.0065,0.0066,0.0067,0.0267,0.0273,0.0279,0,0,0,0,0,0,0,0,0,0,0,0,0,-0.0195,-0.028,-0.0177,-0.0111,-0.0104,-0.0035,-0.0033,-0.003,0.0065,0.0066,0.0066,0.0067,0.0265,0.0272,0.028,0.0312,0,0,0.0302,0.0306,0,0,0,0,0,0,0,0,-0.02,-0.0191,-0.0122,-0.0116,-0.0108,-0.0004,0.0005,0.0086,0.0065,0.0003,0.0066,0.0067,0.0181,0.0195,0.0223,0.0321,0.033,0.0303,0.0308,0.0311,0.0313,0,0,0,0,0,0,0,-0.0207,-0.0196,-0.0118,-0.0121,-0.0112,-0.006,-0.0047,0.0021,0.0089,0.0009,0.0015,0.0027,0.0186,0.0216,0.0229,0.0333,0.0303,0.0309,0.0314,0.0317,0.049,0.0491,0,0,0,0,0,0,-0.0234,-0.0203,-0.0123,-0.0114,-0.0156,-0.0059,-0.0045,-0.0036,0.0088,0.0106,0.0026,0.0031,0.0203,0.022,0.0236,0.0293,0.0311,0.0318,0.0322,0.049,0.049,0.0491,0,0,0,0,0,0,-0.0237,-0.0228,-0.0129,-0.0157,-0.0141,-0.0059,-0.0049,-0.0034,-0.0004,0.01,0.012,0.004,0.0204,0.0226,0.03,0.0301,0.0321,0.0328,0.049,0.049,0.0491,0.0399,0,0,0,0,0,0,-0.024,-0.023,-0.0237,-0.0159,-0.014,-0.01,-0.0049,-0.0031,0.0001,0.0009,0.0118,0.0138,0.0206,0.0288,0.0307,0.0312,0.0334,0.049,0.049,0.0491,0.0402,0.0396,0.0391,0,0,0,0,0,-0.0245,-0.026,-0.0238,-0.0228,-0.0151,-0.0101,-0.0087,-0.0024,0.0001,0.0007,0.0088,0.0134,0.0303,0.0294,0.0317,0.0323,0.049,0.049,0.049,0.0404,0.0397,0.0391,0,0,0,0,0,0,-0.0309,-0.0249,-0.0224,-0.022,-0.017,-0.0086,-0.0078,-0.0034,0.0034,0.0043,0.0142,0.0167,0.0229,0.0288,0.0276,0.0374,0.0402,0.0407,0.0329,0.0323,0.0318,0.0297,0.034,0,0,0,0,0,-0.0329,-0.0324,-0.0255,-0.0254,-0.0234,-0.0158,-0.0132,-0.0089,-0.0019,0.0011,0.0088,0.0172,0.0248,0.0293,0.0362,0.042,0.048,0.0438,0.0432,0.0427,0.0425,0.0517,0.052,0.0492,0.0492,0.0492,0,0,-0.0354,-0.0322,-0.0319,-0.0268,-0.0224,-0.0202,-0.014,-0.0109,-0.0082,0.0023,0.0078,0.0152,0.0256,0.032,0.0353,0.0372,0.0465,0.0428,0.0423,0.0423,0.0518,0.0521,0.0523,0.0492,0.0492,0.0492,0,0,-0.0409,-0.0375,-0.039,-0.0352,-0.0298,-0.0245,-0.0243,-0.0163,-0.012,-0.0059,0.0023,0.0101,0.0207,0.0291,0.0346,0.0354,0.0427,0.0368,0.0335,0.0424,0.0427,0.043,0.0497,0.0508,0.0373,0.0372,0.0372,0,-0.0445,-0.0446,-0.0387,-0.0385,-0.0361,-0.0272,-0.0274,-0.0214,-0.012,-0.008,-0.0058,0.0118,0.0198,0.0302,0.0302,0.0343,0.0394,0.0348,0.0416,0.0421,0.0426,0.0494,0.0507,0.0368,0.0369,0.0369,0.0369,0,-0.0499,-0.0498,-0.0503,-0.0469,-0.0435,-0.0423,-0.0336,-0.0293,-0.0233,-0.0162,-0.0062,0.0056,0.0164,0.0199,0.0255,0.0333,0.0356,0.039,0.0426,0.0423,0.0496,0.051,0.0362,0.0363,0.0365,0.0366,0,0,-0.0584,-0.0551,-0.0555,-0.0554,-0.0478,-0.0459,-0.0408,-0.0331,-0.0292,-0.0191,-0.0126,0.0008,0.0076,0.0142,0.0231,0.031,0.0384,0.0352,0.0359,0.0408,0.0564,0.0621,0.0643,0.0425,0.0428,0.0429,0.0595,0,-0.0646,-0.0686,-0.0631,-0.0645,-0.0653,-0.0549,-0.0508,-0.0423,-0.0332,-0.0246,-0.0102,-0.0012,0.0056,0.0106,0.0198,0.0342,0.042,0.0335,0.057,0.0577,0.062,0.0662,0.0738,0.0896,0.061,0.0612,0.0614,0,-0.0715,-0.0731,-0.0773,-0.0737,-0.0727,-0.0709,-0.0623,-0.0574,-0.042,-0.0345,-0.0217,-0.01,0.005,0.0095,0.0343,0.0282,0.0406,0.0513,0.0523,0.0621,0.0662,0.0859,0.0934,0.1175,0.0637,0.0635,0.0634,0,-0.0822,-0.0824,-0.0867,-0.0854,-0.0797,-0.0781,-0.074,-0.0613,-0.0565,-0.0407,-0.0346,-0.0148,-0.0046,0.0141,0.0374,0.0356,0.064,0.0651,0.0822,0.0827,0.0963,0.0976,0.1294,0.0813,0.0813,0.0812,0.0812,0,-0.0909,-0.0937,-0.0925,-0.0943,-0.0975,-0.0891,-0.0876,-0.0797,-0.0673,-0.061,-0.0414,-0.0304,-0.0033,0.0173,0.0366,0.0652,0.0645,0.083,0.0885,0.0931,0.0939,0.1211,0.1281,0.0819,0.0817,0.0816,0.0815,0,-0.1011,-0.1006,-0.105,-0.1029,-0.1029,-0.1053,-0.0992,-0.0968,-0.0834,-0.0743,-0.0696,-0.0418,-0.0132,0.0152,0.0477,0.0646,0.1058,0.1002,0.1028,0.1084,0.1445,0.1504,0.183,0.1948,0.1215,0.1217,0.1219,0,-0.1067,-0.1104,-0.1138,-0.1181,-0.1176,-0.1191,-0.1192,-0.1075,-0.1029,-0.0797,-0.0752,-0.0455,-0.0198,0.0317,0.0682,0.1058,0.12,0.1302,0.1288,0.1499,0.1607,0.1634,0.171,0.1431,0.1434,0.1437,0.144,0,-0.1158,-0.1169,-0.1212,-0.1316,-0.1351,-0.137,-0.1352,-0.1334,-0.1169,-0.1043,-0.0802,-0.0574,-0.0027,0.0487,0.0969,0.1177,0.1481,0.1374,0.1616,0.1825,0.1858,0.1985,0.1264,0.1467,0.1464,0.1462,0.1461,0.146,-0.1217,-0.1284,-0.1354,-0.1443,-0.1495,-0.1523,-0.1528,-0.1458,-0.1362,-0.1117,-0.0864,-0.0451,0.0312,0.1046,0.1304,0.185,0.1738,0.1988,0.2047,0.2059,0.2172,0.149,0.1736,0.1735,0.1734,0.1733,0.1733,0,-0.1293,-0.1368,-0.1472,-0.1568,-0.1643,-0.1633,-0.1609,-0.1553,-0.1436,-0.1126,-0.0828,0.0063,0.0806,0.1464,0.2267,0.2535,0.2569,0.2635,0.2724,0.2771,0.2221,0.2232,0.257,0.257,0.257,0.2569,0.2569,0.2569,-0.1335,-0.1462,-0.1522,-0.1674,-0.1733,-0.1785,-0.1767,-0.1632,-0.1403,-0.0862,-0.0344,0.012,0.1083,0.242,0.3151,0.3178,0.3399,0.3344,0.3445,0.3103,0.3047,0.2994,0.3028,0.3527,0.3528,0.3997,0.4002,0.4006]}],[{"header":{"parameterUnit":"m.s-1","parameterCategory":2,"la1":30.2991,"la2":30.254,"lo1":-89.0895,"lo2":-89.0444,"dy":0.0017,"dx":0.0017,"nx":28,"ny":28,"refTime":"2024-04-26T21:00:00:Z","depth":"2","parameterNumber":2,"parameterNumberName":"U-component_of_CURRENTS"},"data":[0,0,0,0,0,0,0,0,0,0,0,0,0,0,0,0,0,0,0,0,0,0,0,0,0,0,0,0,0,0,0,0,0,0,0,0,0,0,0,0,0,0,0,0,0,0,0,0,0,0,0,0,0,0,0,0,0,0,-0.3152,-0.3153,0,-0.3197,-0.3197,-0.3197,-0.317,-0.3169,-0.3168,-0.3167,-0.3131,-0.3131,-0.3131,0,0,0,0,0,0,0,0,0,0,0,0,0,-0.3042,-0.3044,-0.3152,-0.3153,-0.3154,-0.3197,-0.3197,-0.3197,-0.3171,-0.3169,-0.3168,-0.3167,-0.3131,-0.3131,-0.3131,0,0,0,0,0,0,0,0,0,0,0,0,0,-0.3085,-0.3044,-0.3152,-0.3148,-0.3148,-0.3197,-0.3197,-0.3197,-0.3171,-0.3169,-0.3168,-0.3166,-0.3131,-0.3131,-0.3131,-0.3161,0,0,-0.3131,-0.3131,0,0,0,0,0,0,0,0,-0.3083,-0.3089,-0.3148,-0.3148,-0.3149,-0.3179,-0.3145,-0.3182,-0.3171,-0.3159,-0.3167,-0.3166,-0.3143,-0.3142,-0.315,-0.3159,-0.3157,-0.3131,-0.3131,-0.3131,-0.3131,0,0,0,0,0,0,0,-0.308,-0.3087,-0.3166,-0.3149,-0.315,-0.3144,-0.3148,-0.3152,-0.3155,-0.316,-0.3159,-0.3169,-0.3142,-0.315,-0.3149,-0.3157,-0.3131,-0.3131,-0.3131,-0.3131,-0.3223,-0.3226,0,0,0,0,0,0,-0.3083,-0.3085,-0.3165,-0.3168,-0.3115,-0.3147,-0.3152,-0.3168,-0.3156,-0.3155,-0.3171,-0.3168,-0.3151,-0.3149,-0.3147,-0.3193,-0.3131,-0.3131,-0.3131,-0.3221,-0.3224,-0.3227,0,0,0,0,0,0,-0.3081,-0.309,-0.3163,-0.3129,-0.3138,-0.3151,-0.317,-0.317,-0.3175,-0.3166,-0.3162,-0.3174,-0.315,-0.3148,-0.3165,-0.319,-0.3131,-0.3131,-0.3218,-0.3222,-0.3225,-0.3276,0,0,0,0,0,0,-0.3078,-0.3089,-0.3098,-0.313,-0.3141,-0.3199,-0.3172,-0.3172,-0.3185,-0.3182,-0.3168,-0.3164,-0.3149,-0.3166,-0.3165,-0.3189,-0.3131,-0.3215,-0.322,-0.3224,-0.3271,-0.3281,-0.3289,0,0,0,0,0,-0.3074,-0.3095,-0.3099,-0.3108,-0.3154,-0.3201,-0.3206,-0.3206,-0.3187,-0.3201,-0.3196,-0.3164,-0.3195,-0.3168,-0.3167,-0.3191,-0.3213,-0.3218,-0.3224,-0.3267,-0.3279,-0.3289,0,0,0,0,0,0,-0.3046,-0.3095,-0.31,-0.3133,-0.3168,-0.3197,-0.3209,-0.3212,-0.322,-0.3211,-0.3191,-0.3188,-0.3213,-0.3206,-0.3176,-0.3237,-0.3201,-0.3207,-0.3235,-0.3246,-0.3255,-0.3251,-0.3131,0,0,0,0,0,-0.3049,-0.3076,-0.3122,-0.3146,-0.3166,-0.3188,-0.3203,-0.3212,-0.3228,-0.3229,-0.3222,-0.3224,-0.324,-0.3243,-0.3252,-0.3283,-0.3258,-0.3303,-0.3312,-0.332,-0.3321,-0.3312,-0.3319,-0.3245,-0.3245,-0.3245,0,0,-0.3042,-0.3074,-0.3086,-0.3142,-0.3164,-0.3212,-0.3192,-0.3226,-0.3263,-0.3225,-0.3257,-0.3251,-0.3257,-0.3292,-0.3303,-0.3284,-0.333,-0.3327,-0.3333,-0.3329,-0.3318,-0.3325,-0.3331,-0.3249,-0.3248,-0.3248,0,0,-0.3054,-0.3075,-0.3108,-0.3148,-0.3198,-0.3223,-0.3236,-0.3275,-0.3285,-0.3325,-0.331,-0.332,-0.3342,-0.3351,-0.3359,-0.3428,-0.3377,-0.3436,-0.3476,-0.3468,-0.3473,-0.3477,-0.3453,-0.3454,-0.3442,-0.3442,-0.3442,0,-0.3042,-0.3096,-0.3123,-0.3176,-0.3211,-0.3232,-0.3282,-0.3312,-0.3349,-0.3363,-0.3343,-0.3379,-0.3373,-0.3418,-0.3443,-0.3445,-0.3425,-0.3426,-0.3476,-0.3479,-0.3482,-0.3457,-0.3457,-0.3445,-0.3445,-0.3444,-0.3444,0,-0.3089,-0.3137,-0.3161,-0.3236,-0.3278,-0.3323,-0.3378,-0.341,-0.3418,-0.3439,-0.3473,-0.347,-0.3484,-0.3495,-0.3487,-0.3522,-0.3496,-0.3482,-0.3437,-0.3492,-0.3462,-0.3462,-0.3449,-0.3448,-0.3447,-0.3447,0,0,-0.3042,-0.3169,-0.3174,-0.3222,-0.3314,-0.335,-0.3423,-0.3487,-0.3518,-0.3543,-0.3574,-0.3602,-0.3577,-0.3586,-0.3575,-0.3574,-0.3576,-0.3541,-0.3539,-0.3497,-0.3545,-0.3501,-0.3496,-0.3565,-0.3565,-0.3566,-0.3514,0,-0.3064,-0.3166,-0.3229,-0.3319,-0.3375,-0.3433,-0.3499,-0.3557,-0.3587,-0.3622,-0.3625,-0.3645,-0.3622,-0.3617,-0.3617,-0.3588,-0.3579,-0.3591,-0.3515,-0.3513,-0.3451,-0.3496,-0.3204,-0.3132,-0.3513,-0.3513,-0.3513,0,-0.3079,-0.3152,-0.3246,-0.3366,-0.3394,-0.3447,-0.3533,-0.3594,-0.366,-0.3683,-0.3702,-0.3699,-0.3711,-0.3673,-0.3643,-0.3649,-0.3603,-0.3574,-0.3571,-0.351,-0.3469,-0.3142,-0.3116,-0.3512,-0.3512,-0.3512,-0.3512,0,-0.3018,-0.3154,-0.3224,-0.3268,-0.3411,-0.3449,-0.3507,-0.3592,-0.3638,-0.37,-0.3723,-0.3742,-0.3731,-0.3698,-0.3645,-0.3639,-0.3599,-0.3578,-0.3495,-0.349,-0.3217,-0.3189,-0.3549,-0.355,-0.355,-0.355,-0.355,0,-0.3018,-0.3068,-0.3195,-0.3236,-0.3298,-0.3409,-0.3469,-0.3534,-0.3624,-0.3666,-0.3724,-0.3745,-0.3734,-0.3714,-0.3662,-0.358,-0.3606,-0.3505,-0.348,-0.323,-0.3205,-0.3517,-0.3514,-0.3548,-0.3548,-0.3549,-0.3549,0,-0.2935,-0.3036,-0.3103,-0.3237,-0.3271,-0.3299,-0.3424,-0.3474,-0.3572,-0.3626,-0.3644,-0.3731,-0.3707,-0.3689,-0.3633,-0.3584,-0.3522,-0.3482,-0.3192,-0.3135,-0.3411,-0.3412,-0.338,-0.3379,-0.3377,-0.3376,-0.3375,0,-0.2903,-0.2931,-0.3046,-0.308,-0.3133,-0.3205,-0.3264,-0.3405,-0.346,-0.3603,-0.3615,-0.3651,-0.3648,-0.3582,-0.347,-0.3371,-0.3462,-0.3084,-0.3033,-0.3418,-0.3396,-0.3399,-0.3402,-0.2677,-0.267,-0.2664,-0.266,0,-0.2807,-0.2836,-0.2895,-0.2953,-0.3012,-0.3076,-0.3163,-0.3209,-0.3373,-0.3438,-0.3519,-0.3541,-0.3493,-0.3281,-0.318,-0.3076,-0.3084,-0.2973,-0.3418,-0.2797,-0.2759,-0.2737,-0.2761,-0.2611,-0.2616,-0.2619,-0.2622,-0.2624,-0.2694,-0.2693,-0.2757,-0.2801,-0.2867,-0.2902,-0.2899,-0.3001,-0.3058,-0.3069,-0.3257,-0.3171,-0.317,-0.2853,-0.2739,-0.2616,-0.281,-0.2673,-0.2686,-0.2707,-0.2667,-0.2632,-0.2451,-0.2454,-0.2458,-0.2461,-0.2463,0,-0.2538,-0.2572,-0.2605,-0.2648,-0.2631,-0.2729,-0.28,-0.2719,-0.2699,-0.2743,-0.2749,-0.2477,-0.2386,-0.2386,-0.2137,-0.2136,-0.2067,-0.2046,-0.1946,-0.1995,-0.2038,-0.1963,-0.156,-0.1558,-0.1556,-0.1554,0,0,-0.2462,-0.2431,-0.2452,-0.2376,-0.2412,-0.2297,-0.2291,-0.219,-0.2146,-0.1991,-0.1944,-0.2122,-0.2268,-0.1887,-0.1829,-0.1661,-0.1791,-0.1564,-0.2276,-0.2199,-0.224,-0.238,-0.2318,0,0,0,0,0]},{"header":{"parameterUnit":"m.s-1","parameterCategory":2,"la1":30.2991,"la2":30.254,"lo1":-89.0895,"lo2":-89.0444,"dy":0.0017,"dx":0.0017,"nx":28,"ny":28,"refTime":"2024-04-26T21:00:00:Z","depth":"2","parameterNumber":3,"parameterNumberName":"V-component_of_CURRENTS"},"data":[0,0,0,0,0,0,0,0,0,0,0,0,0,0,0,0,0,0,0,0,0,0,0,0,0,0,0,0,0,0,0,0,0,0,0,0,0,0,0,0,0,0,0,0,0,0,0,0,0,0,0,0,0,0,0,0,0,0,-0.0199,-0.0198,0,-0.006,-0.0058,-0.0056,0.0038,0.0039,0.0039,0.004,0.0238,0.0242,0.0247,0,0,0,0,0,0,0,0,0,0,0,0,0,-0.0303,-0.0302,-0.02,-0.0198,-0.0196,-0.006,-0.0058,-0.0056,0.0038,0.0039,0.0039,0.004,0.0236,0.0242,0.0248,0,0,0,0,0,0,0,0,0,0,0,0,0,-0.0218,-0.0302,-0.02,-0.0135,-0.0128,-0.006,-0.0058,-0.0055,0.0038,0.0039,0.004,0.004,0.0234,0.0241,0.0248,0.0279,0,0,0.027,0.0274,0,0,0,0,0,0,0,0,-0.0223,-0.0214,-0.0146,-0.0139,-0.0131,-0.0029,-0.0022,0.0059,0.0038,-0.0022,0.004,0.0041,0.0152,0.0166,0.0193,0.0289,0.0297,0.0271,0.0276,0.0279,0.0281,0,0,0,0,0,0,0,-0.023,-0.0219,-0.0142,-0.0144,-0.0135,-0.0085,-0.0072,-0.0006,0.0062,-0.0017,-0.001,0.0001,0.0157,0.0186,0.0198,0.03,0.0271,0.0277,0.0282,0.0285,0.0452,0.0453,0,0,0,0,0,0,-0.0256,-0.0226,-0.0146,-0.0138,-0.0179,-0.0084,-0.007,-0.0061,0.006,0.0078,0.0001,0.0005,0.0173,0.019,0.0206,0.026,0.0279,0.0285,0.029,0.0452,0.0452,0.0453,0,0,0,0,0,0,-0.0259,-0.0251,-0.0152,-0.018,-0.0164,-0.0084,-0.0074,-0.0059,-0.0029,0.0072,0.0092,0.0014,0.0174,0.0196,0.0268,0.0268,0.0289,0.0295,0.0452,0.0452,0.0453,0.0362,0,0,0,0,0,0,-0.0263,-0.0253,-0.0259,-0.0182,-0.0164,-0.0124,-0.0074,-0.0056,-0.0024,-0.0017,0.009,0.011,0.0176,0.0256,0.0275,0.0278,0.0301,0.0452,0.0452,0.0452,0.0365,0.0359,0.0354,0,0,0,0,0,-0.0267,-0.0281,-0.026,-0.025,-0.0174,-0.0125,-0.0111,-0.0049,-0.0025,-0.0019,0.006,0.0106,0.027,0.0262,0.0284,0.029,0.0452,0.0452,0.0452,0.0367,0.036,0.0354,0,0,0,0,0,0,-0.033,-0.0271,-0.0246,-0.0241,-0.0193,-0.011,-0.0102,-0.0059,0.0008,0.0016,0.0113,0.0138,0.0198,0.0256,0.0244,0.0338,0.0367,0.0371,0.0295,0.0289,0.0284,0.0262,0.0307,0,0,0,0,0,-0.0349,-0.0344,-0.0276,-0.0275,-0.0256,-0.0181,-0.0155,-0.0113,-0.0044,-0.0014,0.0061,0.0142,0.0215,0.026,0.0327,0.0383,0.0442,0.0399,0.0394,0.0389,0.0386,0.0477,0.048,0.0453,0.0453,0.0453,0,0,-0.0374,-0.0342,-0.0339,-0.0288,-0.0246,-0.0225,-0.0163,-0.0133,-0.0106,-0.0003,0.005,0.0123,0.0224,0.0285,0.0317,0.0336,0.0426,0.0389,0.0384,0.0385,0.0478,0.0481,0.0483,0.0454,0.0453,0.0453,0,0,-0.0427,-0.0393,-0.0408,-0.0371,-0.0318,-0.0267,-0.0264,-0.0186,-0.0144,-0.0085,-0.0005,0.0071,0.0174,0.0255,0.0308,0.0315,0.0388,0.0328,0.0296,0.0383,0.0386,0.0389,0.0456,0.0466,0.0333,0.0333,0.0333,0,-0.0463,-0.0464,-0.0405,-0.0404,-0.038,-0.0293,-0.0296,-0.0238,-0.0146,-0.0107,-0.0084,0.0087,0.0165,0.0265,0.0264,0.0304,0.0354,0.0309,0.0375,0.038,0.0385,0.0453,0.0465,0.0329,0.0329,0.033,0.033,0,-0.0516,-0.0515,-0.0521,-0.0488,-0.0454,-0.0443,-0.0358,-0.0317,-0.0258,-0.0189,-0.0092,0.0024,0.0128,0.0162,0.0217,0.0293,0.0316,0.035,0.0386,0.0382,0.0454,0.0468,0.0323,0.0324,0.0325,0.0326,0,0,-0.0599,-0.0568,-0.0571,-0.0572,-0.0497,-0.0479,-0.0431,-0.0357,-0.032,-0.022,-0.0158,-0.0028,0.004,0.0104,0.0191,0.0269,0.0342,0.0311,0.0318,0.0367,0.052,0.0573,0.0594,0.0383,0.0386,0.0387,0.0552,0,-0.0661,-0.0701,-0.0648,-0.0663,-0.0672,-0.057,-0.0532,-0.0449,-0.0361,-0.0277,-0.0136,-0.0049,0.0019,0.0068,0.0159,0.0301,0.0377,0.0294,0.0526,0.0533,0.0573,0.0612,0.0505,0.0646,0.0566,0.0569,0.057,0,-0.0729,-0.0746,-0.0788,-0.0755,-0.0746,-0.0729,-0.0647,-0.0599,-0.045,-0.0376,-0.0251,-0.0136,0.0011,0.0056,0.03,0.0241,0.0363,0.047,0.048,0.0572,0.0614,0.0643,0.0676,0.0595,0.0593,0.0591,0.059,0,-0.0834,-0.0838,-0.0882,-0.087,-0.0815,-0.0801,-0.0762,-0.0638,-0.0592,-0.0438,-0.0378,-0.0184,-0.0083,0.0102,0.0332,0.0314,0.0594,0.0605,0.0771,0.0776,0.0754,0.0754,0.0766,0.0766,0.0765,0.0765,0.0764,0,-0.0921,-0.0949,-0.0939,-0.0957,-0.0991,-0.0909,-0.0896,-0.082,-0.0699,-0.0639,-0.0446,-0.0338,-0.007,0.0133,0.0323,0.0604,0.0599,0.0778,0.0833,0.0719,0.0714,0.0725,0.0718,0.0771,0.077,0.0768,0.0767,0,-0.1022,-0.1018,-0.1062,-0.1043,-0.1044,-0.1068,-0.101,-0.0988,-0.0858,-0.0769,-0.0724,-0.045,-0.0169,0.0111,0.0432,0.0598,0.0854,0.0948,0.0791,0.0825,0.0971,0.0958,0.1147,0.115,0.1153,0.1156,0.1158,0,-0.1078,-0.1114,-0.115,-0.1193,-0.1189,-0.1205,-0.1207,-0.1093,-0.1048,-0.0823,-0.078,-0.0488,-0.0241,0.0265,0.0586,0.0945,0.0952,0.1048,0.1008,0.0982,0.1016,0.0998,0.0981,0.0935,0.0935,0.0935,0.0935,0,-0.1168,-0.1179,-0.1223,-0.1326,-0.1361,-0.1382,-0.1365,-0.1349,-0.1188,-0.1067,-0.0834,-0.0616,-0.0117,0.028,0.0738,0.0921,0.0985,0.1064,0.1102,0.0858,0.0797,0.0826,0.0813,0.0936,0.0936,0.0936,0.0936,0.0936,-0.1226,-0.1293,-0.1363,-0.1451,-0.1504,-0.1534,-0.154,-0.1473,-0.1383,-0.1167,-0.0925,-0.058,-0.0162,0.0475,0.0803,0.1065,0.108,0.1121,0.1114,0.1109,0.1058,0.1007,0.1173,0.1175,0.1176,0.1177,0.1177,0,-0.1299,-0.1377,-0.148,-0.1575,-0.1647,-0.1642,-0.1622,-0.157,-0.1459,-0.1221,-0.0958,-0.0511,-0.0033,0.0389,0.0816,0.1115,0.1052,0.1134,0.0993,0.0991,0.0989,0.0927,0.1011,0.1012,0.1012,0.1013,0,0,-0.134,-0.1464,-0.1524,-0.1673,-0.1735,-0.1784,-0.1768,-0.1651,-0.147,-0.1223,-0.0977,-0.0586,-0.004,0.0236,0.06,0.0819,0.0817,0.0813,0.0909,0.0694,0.0689,0.0939,0.0836,0,0,0,0,0]}],[{"header":{"parameterUnit":"m.s-1","parameterCategory":2,"la1":30.2991,"la2":30.254,"lo1":-89.0895,"lo2":-89.0444,"dy":0.0017,"dx":0.0017,"nx":28,"ny":28,"refTime":"2024-04-26T21:00:00:Z","depth":"4","parameterNumber":2,"parameterNumberName":"U-component_of_CURRENTS"},"data":[0,0,0,0,0,0,0,0,0,0,0,0,0,0,0,0,0,0,0,0,0,0,0,0,0,0,0,0,0,0,0,0,0,0,0,0,0,0,0,0,0,0,0,0,0,0,0,0,0,0,0,0,0,0,0,0,0,0,-0.2028,-0.2029,0,-0.2112,-0.2113,-0.2114,-0.2161,-0.2161,-0.2161,-0.2162,-0.2201,-0.2202,-0.2202,0,0,0,0,0,0,0,0,0,0,0,0,0,-0.1891,-0.1893,-0.2027,-0.2029,-0.203,-0.2112,-0.2113,-0.2114,-0.216,-0.2161,-0.2161,-0.2162,-0.2201,-0.2202,-0.2202,0,0,0,0,0,0,0,0,0,0,0,0,0,-0.1958,-0.1894,-0.2027,-0.2065,-0.2069,-0.2112,-0.2113,-0.2114,-0.216,-0.2161,-0.2161,-0.2162,-0.2201,-0.2202,-0.2203,-0.2198,0,0,-0.2206,-0.2206,0,0,0,0,0,0,0,0,-0.1954,-0.1963,-0.2058,-0.2063,-0.2068,-0.2129,-0.208,-0.2141,-0.216,-0.2123,-0.2162,-0.2162,-0.2174,-0.2177,-0.2189,-0.22,-0.2202,-0.2206,-0.2207,-0.2207,-0.2207,0,0,0,0,0,0,0,-0.195,-0.1959,-0.2058,-0.206,-0.2065,-0.2073,-0.2083,-0.2091,-0.2141,-0.2126,-0.2131,-0.2144,-0.2176,-0.2188,-0.219,-0.2202,-0.2206,-0.2207,-0.2207,-0.2208,-0.2323,-0.2325,0,0,0,0,0,0,-0.1945,-0.1955,-0.2056,-0.2061,-0.2014,-0.2075,-0.2086,-0.2106,-0.2143,-0.215,-0.2143,-0.2146,-0.2186,-0.2189,-0.2191,-0.2285,-0.2207,-0.2208,-0.2209,-0.232,-0.2323,-0.2326,0,0,0,0,0,0,-0.1942,-0.1953,-0.2052,-0.2011,-0.2025,-0.2077,-0.2099,-0.2108,-0.2157,-0.2156,-0.2162,-0.2188,-0.2186,-0.219,-0.2242,-0.2283,-0.2208,-0.2209,-0.2317,-0.2321,-0.2325,-0.2408,0,0,0,0,0,0,-0.1937,-0.1952,-0.1981,-0.2011,-0.2027,-0.2104,-0.2099,-0.2109,-0.2163,-0.2168,-0.2196,-0.2198,-0.2187,-0.2241,-0.2243,-0.2283,-0.221,-0.2314,-0.2319,-0.2323,-0.2403,-0.2414,-0.2425,0,0,0,0,0,-0.1932,-0.1965,-0.1982,-0.1995,-0.206,-0.2106,-0.2115,-0.2151,-0.2165,-0.2195,-0.2222,-0.2199,-0.2271,-0.2244,-0.2246,-0.2287,-0.2312,-0.2318,-0.2323,-0.2398,-0.2412,-0.2424,0,0,0,0,0,0,-0.1922,-0.1974,-0.1993,-0.2041,-0.2084,-0.2115,-0.2152,-0.2174,-0.2219,-0.2234,-0.2229,-0.2234,-0.2291,-0.2283,-0.2253,-0.2335,-0.2288,-0.2294,-0.2344,-0.2358,-0.2369,-0.2361,-0.2211,0,0,0,0,0,-0.1932,-0.1973,-0.2018,-0.2061,-0.2086,-0.2126,-0.2156,-0.2183,-0.2219,-0.2242,-0.2262,-0.2287,-0.231,-0.2331,-0.2345,-0.2391,-0.2366,-0.2421,-0.2432,-0.2442,-0.244,-0.244,-0.245,-0.2344,-0.2344,-0.2344,0,0,-0.1939,-0.1975,-0.1999,-0.2062,-0.2098,-0.2146,-0.2146,-0.2205,-0.2253,-0.2236,-0.2315,-0.2325,-0.2331,-0.2384,-0.2409,-0.2387,-0.2463,-0.2448,-0.2456,-0.2449,-0.2446,-0.2456,-0.2465,-0.2347,-0.2347,-0.2346,0,0,-0.1962,-0.2008,-0.2048,-0.2092,-0.2158,-0.2184,-0.221,-0.2268,-0.2307,-0.2375,-0.2375,-0.2414,-0.2459,-0.2468,-0.2476,-0.2558,-0.2518,-0.2573,-0.2627,-0.2628,-0.2636,-0.2642,-0.2633,-0.2638,-0.2582,-0.2583,-0.2583,0,-0.197,-0.2027,-0.2067,-0.2118,-0.2161,-0.2206,-0.2259,-0.2305,-0.2375,-0.2408,-0.2415,-0.2488,-0.2494,-0.2545,-0.2579,-0.2581,-0.2572,-0.2573,-0.264,-0.2646,-0.2651,-0.2639,-0.2644,-0.2587,-0.2587,-0.2586,-0.2586,0,-0.2012,-0.2075,-0.2105,-0.2184,-0.2235,-0.2291,-0.2354,-0.2414,-0.2464,-0.25,-0.2576,-0.2591,-0.2628,-0.2645,-0.2639,-0.2691,-0.267,-0.2648,-0.2599,-0.2666,-0.265,-0.2653,-0.2594,-0.2592,-0.2591,-0.259,0,0,-0.1974,-0.2109,-0.2122,-0.2174,-0.2278,-0.2316,-0.2409,-0.2488,-0.2544,-0.2613,-0.2674,-0.2726,-0.2733,-0.2743,-0.2744,-0.2755,-0.279,-0.2729,-0.2727,-0.2708,-0.2792,-0.2618,-0.2604,-0.2783,-0.2784,-0.2785,-0.2769,0,-0.1995,-0.2094,-0.2162,-0.2262,-0.2316,-0.2398,-0.2476,-0.2557,-0.262,-0.2691,-0.2725,-0.278,-0.2772,-0.2796,-0.281,-0.2792,-0.2801,-0.2796,-0.274,-0.2738,-0.2565,-0.2602,-0.2788,-0.277,-0.2771,-0.2771,-0.2772,0,-0.1998,-0.2071,-0.2173,-0.2305,-0.2337,-0.2408,-0.2526,-0.2601,-0.2706,-0.2759,-0.2819,-0.2843,-0.2887,-0.2862,-0.2868,-0.2869,-0.2842,-0.2821,-0.282,-0.2624,-0.2568,-0.2689,-0.2776,-0.2776,-0.2775,-0.2775,-0.2775,0,-0.1924,-0.2069,-0.2151,-0.2199,-0.2356,-0.2422,-0.2502,-0.2619,-0.2682,-0.2796,-0.2841,-0.2899,-0.2925,-0.2915,-0.2885,-0.2885,-0.2866,-0.2852,-0.2671,-0.2658,-0.2783,-0.2775,-0.2847,-0.2847,-0.2847,-0.2847,-0.2847,0,-0.1895,-0.1962,-0.213,-0.2176,-0.2269,-0.2393,-0.2492,-0.2582,-0.2704,-0.2757,-0.2863,-0.2889,-0.294,-0.2936,-0.2903,-0.2783,-0.2879,-0.2673,-0.2638,-0.2821,-0.2819,-0.2785,-0.2778,-0.2847,-0.2847,-0.2847,-0.2847,0,-0.1789,-0.1912,-0.2004,-0.218,-0.2238,-0.2296,-0.2469,-0.2528,-0.2668,-0.2737,-0.2776,-0.2888,-0.2873,-0.2891,-0.2865,-0.2776,-0.2699,-0.2636,-0.2832,-0.281,-0.249,-0.2489,-0.2426,-0.2419,-0.2414,-0.2409,-0.2405,0,-0.174,-0.1782,-0.1965,-0.2021,-0.2107,-0.2225,-0.2302,-0.2479,-0.2529,-0.2699,-0.27,-0.2766,-0.2805,-0.2633,-0.2676,-0.2593,-0.2562,-0.252,-0.2502,-0.2472,-0.2446,-0.2453,-0.2458,-0.2397,-0.2395,-0.2394,-0.2393,0,-0.1627,-0.1704,-0.1782,-0.1889,-0.1987,-0.2071,-0.2188,-0.2217,-0.2399,-0.2556,-0.2553,-0.2548,-0.2529,-0.2502,-0.2456,-0.2399,-0.2545,-0.2463,-0.2474,-0.2457,-0.2437,-0.2418,-0.2429,-0.2374,-0.2376,-0.2378,-0.2379,0,-0.1527,-0.1543,-0.1649,-0.1723,-0.1837,-0.187,-0.1967,-0.2034,-0.2114,-0.2318,-0.2307,-0.2387,-0.2498,-0.2399,-0.2355,-0.2286,-0.2248,-0.218,-0.2205,-0.2227,-0.2166,-0.2112,-0.191,0,0,0,0,0,-0.1411,-0.1415,-0.1473,-0.1547,-0.1649,-0.17,-0.1865,-0.1969,-0.2159,-0.2096,-0.2198,-0.2175,-0.2136,-0.2183,-0.2062,-0.2239,-0.2241,-0.209,-0.2174,-0.227,-0.2291,-0.2237,0,0,0,0,0,0,-0.1339,-0.1384,-0.1406,-0.1372,-0.1384,-0.1464,-0.1558,-0.1694,-0.1679,-0.1884,-0.1868,-0.2024,-0.2004,-0.2142,-0.2002,-0.2013,-0.202,-0.2155,-0.2149,-0.2257,-0.2277,-0.2295,-0.2246,0,0,0,0,0]},{"header":{"parameterUnit":"m.s-1","parameterCategory":2,"la1":30.2991,"la2":30.254,"lo1":-89.0895,"lo2":-89.0444,"dy":0.0017,"dx":0.0017,"nx":28,"ny":28,"refTime":"2024-04-26T21:00:00:Z","depth":"4","parameterNumber":3,"parameterNumberName":"V-component_of_CURRENTS"},"data":[0,0,0,0,0,0,0,0,0,0,0,0,0,0,0,0,0,0,0,0,0,0,0,0,0,0,0,0,0,0,0,0,0,0,0,0,0,0,0,0,0,0,0,0,0,0,0,0,0,0,0,0,0,0,0,0,0,0,-0.0181,-0.018,0,-0.0086,-0.0085,-0.0084,-0.0021,-0.002,-0.002,-0.002,0.0122,0.0126,0.0129,0,0,0,0,0,0,0,0,0,0,0,0,0,-0.0253,-0.0252,-0.0181,-0.018,-0.0179,-0.0086,-0.0085,-0.0083,-0.0021,-0.002,-0.002,-0.002,0.0121,0.0125,0.013,0,0,0,0,0,0,0,0,0,0,0,0,0,-0.0195,-0.0252,-0.0181,-0.0138,-0.0133,-0.0087,-0.0085,-0.0083,-0.0021,-0.002,-0.002,-0.002,0.012,0.0125,0.013,0.0156,0,0,0.0147,0.0149,0,0,0,0,0,0,0,0,-0.0198,-0.0192,-0.0145,-0.0141,-0.0136,-0.0067,-0.0058,-0.0001,-0.0021,-0.0061,-0.002,-0.0019,0.0062,0.0072,0.0091,0.0162,0.0169,0.0147,0.015,0.0153,0.0154,0,0,0,0,0,0,0,-0.0202,-0.0195,-0.0141,-0.0144,-0.0138,-0.0105,-0.0096,-0.0047,-0.0,-0.0058,-0.0053,-0.0046,0.0065,0.0086,0.0095,0.0171,0.0147,0.0152,0.0155,0.0157,0.0273,0.0273,0,0,0,0,0,0,-0.0221,-0.0199,-0.0145,-0.0139,-0.0169,-0.0104,-0.0094,-0.0087,-0.0002,0.0011,-0.0047,-0.0044,0.0077,0.0089,0.01,0.0133,0.0152,0.0157,0.0161,0.0273,0.0273,0.0273,0,0,0,0,0,0,-0.0223,-0.0217,-0.0148,-0.0168,-0.0158,-0.0104,-0.0096,-0.0086,-0.0066,0.0006,0.002,-0.0038,0.0077,0.0093,0.0143,0.0139,0.016,0.0165,0.0274,0.0273,0.0273,0.02,0,0,0,0,0,0,-0.0226,-0.0218,-0.0223,-0.017,-0.0157,-0.013,-0.0096,-0.0084,-0.0063,-0.0058,0.0018,0.0031,0.0079,0.0135,0.0149,0.0147,0.0169,0.0274,0.0274,0.0273,0.0203,0.0197,0.0193,0,0,0,0,0,-0.0228,-0.0236,-0.0224,-0.0218,-0.0165,-0.0131,-0.0122,-0.008,-0.0064,-0.006,-0.0005,0.0029,0.0143,0.0139,0.0155,0.0155,0.0274,0.0274,0.0273,0.0205,0.0199,0.0193,0,0,0,0,0,0,-0.0268,-0.0229,-0.0215,-0.021,-0.0179,-0.0121,-0.0116,-0.0087,-0.0041,-0.0036,0.0033,0.0051,0.009,0.0134,0.0127,0.0187,0.0212,0.0215,0.0154,0.0149,0.0144,0.0126,0.0173,0,0,0,0,0,-0.0281,-0.0279,-0.0234,-0.0233,-0.0221,-0.0171,-0.0153,-0.0126,-0.0078,-0.0057,-0.0005,0.0052,0.0101,0.0133,0.0179,0.0218,0.0267,0.0227,0.0222,0.0217,0.0213,0.0289,0.0291,0.0272,0.0272,0.0272,0,0,-0.0297,-0.0276,-0.0275,-0.0242,-0.0215,-0.0205,-0.0159,-0.0139,-0.0127,-0.0049,-0.0018,0.0035,0.0106,0.0145,0.0167,0.0183,0.0247,0.0217,0.0213,0.0211,0.0289,0.0291,0.0292,0.0272,0.0272,0.0272,0,0,-0.0333,-0.031,-0.0323,-0.0301,-0.0269,-0.0235,-0.0235,-0.0182,-0.0156,-0.0119,-0.0062,-0.0008,0.0062,0.0118,0.0155,0.0153,0.0213,0.0161,0.0132,0.0205,0.0207,0.0209,0.0265,0.0273,0.0166,0.0165,0.0165,0,-0.0356,-0.0363,-0.0321,-0.0326,-0.0316,-0.0255,-0.0265,-0.0227,-0.0165,-0.0142,-0.0123,-0.0005,0.0051,0.0117,0.0112,0.0143,0.0186,0.0146,0.0198,0.0202,0.0206,0.0263,0.0273,0.0162,0.0162,0.0163,0.0163,0,-0.0397,-0.0404,-0.0409,-0.0396,-0.0378,-0.0376,-0.0323,-0.0299,-0.026,-0.0214,-0.015,-0.0064,0.0009,0.0033,0.0072,0.0126,0.0148,0.0177,0.021,0.0203,0.0264,0.0275,0.0157,0.0158,0.0159,0.016,0,0,-0.0445,-0.0442,-0.0446,-0.0458,-0.0417,-0.0409,-0.0386,-0.0345,-0.0327,-0.0255,-0.0217,-0.0126,-0.0071,-0.0026,0.004,0.0104,0.0165,0.0142,0.0147,0.0191,0.0314,0.0276,0.0285,0.0202,0.0204,0.0205,0.0342,0,-0.0494,-0.0538,-0.0509,-0.0539,-0.0554,-0.0493,-0.0478,-0.0428,-0.0369,-0.0316,-0.0209,-0.0151,-0.0094,-0.0059,0.0015,0.0129,0.0193,0.0124,0.032,0.0325,0.0288,0.0297,0.0211,0.0351,0.0354,0.0356,0.0358,0,-0.0543,-0.0567,-0.0617,-0.0619,-0.0618,-0.0621,-0.0582,-0.0559,-0.046,-0.0408,-0.0316,-0.0228,-0.0116,-0.0074,0.0125,0.0077,0.0181,0.027,0.0278,0.0275,0.0309,0.0364,0.038,0.0378,0.0376,0.0375,0.0373,0,-0.061,-0.0639,-0.0689,-0.069,-0.0677,-0.0683,-0.067,-0.0595,-0.0572,-0.0465,-0.0424,-0.0273,-0.0191,-0.004,0.0147,0.0137,0.0363,0.038,0.0448,0.0446,0.0473,0.0469,0.0513,0.0513,0.0513,0.0512,0.0512,0,-0.0666,-0.0705,-0.0732,-0.0755,-0.0806,-0.0764,-0.078,-0.0735,-0.0662,-0.0629,-0.0482,-0.0407,-0.0179,-0.0017,0.0138,0.0329,0.0367,0.0441,0.0481,0.0437,0.0428,0.0481,0.0475,0.0517,0.0516,0.0515,0.0514,0,-0.0722,-0.0743,-0.0802,-0.0825,-0.0841,-0.0877,-0.0874,-0.087,-0.0789,-0.0737,-0.0705,-0.0497,-0.0284,-0.0056,0.0208,0.0312,0.0499,0.0558,0.0489,0.0523,0.0533,0.0522,0.0635,0.0635,0.0635,0.0634,0.0634,0,-0.0753,-0.0791,-0.0867,-0.0919,-0.0937,-0.0981,-0.1004,-0.0948,-0.0926,-0.0786,-0.0755,-0.0543,-0.0387,-0.0031,0.0197,0.0491,0.0526,0.0609,0.0568,0.0519,0.0547,0.0536,0.0526,0.0634,0.0634,0.0634,0.0634,0,-0.0799,-0.0832,-0.0883,-0.0996,-0.1054,-0.1104,-0.1122,-0.1114,-0.1025,-0.0959,-0.078,-0.0575,-0.0331,-0.0045,0.0189,0.0398,0.0544,0.0608,0.0609,0.0572,0.0519,0.0545,0.0535,0.0633,0.0633,0.0634,0.0634,0,-0.0827,-0.0883,-0.0962,-0.1054,-0.1141,-0.1191,-0.1195,-0.1141,-0.1101,-0.0931,-0.0874,-0.0588,-0.0408,-0.0092,0.0125,0.0324,0.036,0.0398,0.0411,0.0414,0.0301,0.0199,0.0249,0,0,0,0,0,-0.0846,-0.0914,-0.1012,-0.1106,-0.1192,-0.1236,-0.1251,-0.1228,-0.1143,-0.1034,-0.0947,-0.0714,-0.0361,-0.0184,0.0006,0.0095,0.0373,0.0319,0.0416,0.063,0.0631,0.0531,0,0,0,0,0,0,-0.0862,-0.0958,-0.1013,-0.1126,-0.1196,-0.1272,-0.1287,-0.1235,-0.1146,-0.1036,-0.0835,-0.0704,-0.0349,-0.0472,0.0,0.0065,0.0141,0.0502,0.0505,0.063,0.0631,0.0631,0.0529,0,0,0,0,0]}]]